W7TRD Weather Reports


time (UTC)temp
C
wind
direction
speed
KPH
gust
KPH
rain 1hr
cm
rain 24hr
cm
rain mn
cm
humidity
%
barometer
mb
20260507063020 12 175 1.6 3.2 0.00 0.00 0.00 79 1022.3
20260507062516 12 193 1.6 1.6 0.00 0.00 0.00 79 1022.3
20260507062014 12 174 0.0 3.2 0.00 0.00 0.00 79 1022.3
20260507061511 12 210 3.2 9.7 0.00 0.00 0.00 79 1022.3
20260507061009 12 176 1.6 4.8 0.00 0.00 0.00 80 1022.3
20260507060506 12 200 1.6 3.2 0.00 0.00 0.00 79 1022.4
20260507060002 12 176 0.0 1.6 0.00 0.00 0.00 80 1022.2
20260507055458 12 199 3.2 3.2 0.00 0.00 0.00 80 1022.2
20260507054954 12 176 1.6 4.8 0.00 0.00 0.00 80 1022.5
20260507054450 12 175 1.6 4.8 0.00 0.00 0.00 80 1022.3
20260507053948 12 151 1.6 4.8 0.00 0.00 0.00 80 1022.3
20260507053446 12 180 1.6 3.2 0.00 0.00 0.00 81 1022.4
20260507052944 12 179 1.6 3.2 0.00 0.00 0.00 81 1022.3
20260507052441 12 2 3.2 3.2 0.00 0.00 0.00 81 1022.5
20260507051938 12 188 0.0 3.2 0.00 0.00 0.00 82 1022.5
20260507051436 12 181 0.0 1.6 0.00 0.00 0.00 82 1022.3
20260507050932 12 178 1.6 3.2 0.00 0.00 0.00 81 1022.7
20260507050429 12 176 1.6 4.8 0.00 0.00 0.00 81 1022.4
20260507045926 12 199 1.6 3.2 0.00 0.00 0.00 81 1022.4
20260507045422 12 299 1.6 12.9 0.00 0.00 0.00 80 1022.4
20260507044920 12 278 3.2 6.4 0.00 0.00 0.00 79 1022.4
20260507044416 12 307 3.2 4.8 0.00 0.00 0.00 79 1022.4
20260507043912 12 207 4.8 11.3 0.00 0.00 0.00 79 1022.4
20260507043409 12 179 0.0 9.7 0.00 0.00 0.00 78 1022.7
20260507042905 12 168 1.6 4.8 0.00 0.00 0.00 79 1022.5
20260507042402 12 165 1.6 3.2 0.00 0.00 0.00 79 1022.4
20260507041857 13 165 1.6 4.8 0.00 0.00 0.00 79 1022.3
20260507041354 13 169 1.6 3.2 0.00 0.00 0.00 78 1022.3
20260507040852 13 181 1.6 3.2 0.00 0.00 0.00 79 1022.4
20260507040347 13 227 1.6 4.8 0.00 0.00 0.00 78 1022.2
20260507035844 13 163 3.2 9.7 0.00 0.00 0.00 78 1022.2
20260507035339 13 191 3.2 6.4 0.00 0.00 0.00 78 1022.1
20260507034837 13 176 3.2 6.4 0.00 0.00 0.00 77 1022.0
20260507034334 13 57 4.8 4.8 0.00 0.00 0.00 77 1021.9
20260507033832 13 153 6.4 12.9 0.00 0.00 0.00 77 1021.9
20260507033330 13 190 3.2 4.8 0.00 0.00 0.00 77 1022.1
20260507032826 13 180 4.8 4.8 0.00 0.00 0.00 77 1021.8
20260507032322 13 192 1.6 4.8 0.00 0.00 0.00 77 1021.7
20260507031819 13 179 3.2 9.7 0.00 0.00 0.00 76 1021.7
20260507031316 13 185 3.2 12.9 0.00 0.00 0.00 76 1021.6
20260507030812 14 104 6.4 9.7 0.00 0.00 0.00 76 1021.5
20260507030310 14 221 1.6 6.4 0.00 0.00 0.00 76 1021.5
20260507025807 14 140 6.4 9.7 0.00 0.00 0.00 76 1021.4
20260507025306 14 134 1.6 6.4 0.00 0.00 0.00 77 1021.3
20260507024802 15 275 1.6 9.7 0.00 0.00 0.00 76 1021.3
20260507024259 15 311 4.8 6.4 0.00 0.00 0.00 76 1021.3
20260507023755 15 12 1.6 4.8 0.00 0.00 0.00 76 1021.4
20260507023252 15 194 3.2 4.8 0.00 0.00 0.00 76 1021.4
20260507022749 15 190 3.2 3.2 0.00 0.00 0.00 75 1021.1
20260507022245 15 192 1.6 3.2 0.00 0.00 0.00 75 1021.1
20260507021741 15 180 1.6 9.7 0.00 0.00 0.00 75 1021.2
20260507021237 15 269 3.2 4.8 0.00 0.00 0.00 74 1021.2
20260507020735 15 177 1.6 9.7 0.00 0.00 0.00 75 1021.2
20260507020231 15 317 3.2 6.4 0.00 0.00 0.00 74 1021.1
20260507015729 16 306 3.2 6.4 0.00 0.00 0.00 74 1021.2
20260507015226 16 119 1.6 4.8 0.00 0.00 0.00 73 1021.4
20260507014723 16 328 3.2 9.7 0.00 0.00 0.00 73 1021.2
20260507014219 16 195 3.2 6.4 0.00 0.00 0.00 73 1021.4
20260507013716 16 178 3.2 9.7 0.00 0.00 0.00 73 1021.3
20260507013214 16 218 3.2 9.7 0.00 0.00 0.00 73 1021.2
20260507012711 16 178 1.6 4.8 0.00 0.00 0.00 72 1021.5
20260507012206 16 163 1.6 6.4 0.00 0.00 0.00 73 1021.6
20260507011704 16 214 3.2 4.8 0.00 0.00 0.00 72 1021.2
20260507011200 16 169 6.4 12.9 0.00 0.00 0.00 72 1021.4
20260507010700 16 202 6.4 9.7 0.00 0.00 0.00 72 1021.5
20260507010156 16 286 4.8 9.7 0.00 0.00 0.00 71 1021.5
20260507005654 17 233 3.2 11.3 0.00 0.00 0.00 70 1021.3
20260507005150 17 176 1.6 6.4 0.00 0.00 0.00 70 1021.5
20260507004647 17 353 4.8 6.4 0.00 0.00 0.00 69 1021.4
20260507004144 17 175 1.6 4.8 0.00 0.00 0.00 70 1021.2
20260507003641 17 318 3.2 9.7 0.00 0.00 0.00 70 1021.2
20260507003140 18 177 1.6 3.2 0.00 0.00 0.00 69 1021.3
20260507002637 18 142 3.2 4.8 0.00 0.00 0.00 68 1021.1
20260507002133 18 154 3.2 9.7 0.00 0.00 0.00 69 1021.2
20260507001630 18 170 3.2 4.8 0.00 0.00 0.00 69 1021.0
20260507001128 18 184 3.2 4.8 0.00 0.00 0.00 68 1021.2
20260507000624 18 187 3.2 9.7 0.00 0.00 0.00 69 1021.2
20260507000119 18 215 3.2 3.2 0.00 0.00 0.00 68 1021.3
20260506235617 18 181 3.2 3.2 0.00 0.00 0.00 68 1021.2
20260506235117 18 182 1.6 4.8 0.00 0.00 0.00 69 1021.1
20260506234614 18 157 0.0 4.8 0.00 0.00 0.00 71 1021.0
20260506234111 18 99 3.2 6.4 0.00 0.00 0.00 71 1021.0
20260506233608 18 176 1.6 4.8 0.00 0.00 0.00 70 1021.2
20260506233105 18 180 1.6 4.8 0.00 0.00 0.00 71 1020.9
20260506232601 18 113 3.2 4.8 0.00 0.00 0.00 70 1021.2
20260506232102 18 154 1.6 4.8 0.00 0.00 0.00 70 1021.0
20260506231559 18 184 3.2 4.8 0.00 0.00 0.00 70 1021.1
20260506231057 19 146 3.2 3.2 0.00 0.00 0.00 68 1021.1
20260506230553 19 180 0.0 1.6 0.00 0.00 0.00 71 1021.2
20260506230051 18 189 3.2 3.2 0.00 0.00 0.00 70 1021.4
20260506225548 19 162 0.0 4.8 0.00 0.00 0.00 69 1021.2
20260506225044 19 179 1.6 4.8 0.00 0.00 0.00 69 1021.4
20260506224541 19 218 3.2 4.8 0.00 0.00 0.00 69 1021.3
20260506224037 19 180 0.0 6.4 0.00 0.00 0.00 70 1021.3
20260506223533 19 184 1.6 3.2 0.00 0.00 0.00 70 1021.3
20260506223030 18 99 0.0 3.2 0.00 0.00 0.00 70 1021.5
20260506222527 19 117 0.0 4.8 0.00 0.00 0.00 69 1021.3
20260506222023 19 235 3.2 4.8 0.00 0.00 0.00 69 1021.7
20260506221521 19 141 1.6 3.2 0.00 0.00 0.00 70 1021.6
20260506221019 19 148 1.6 1.6 0.00 0.00 0.00 69 1021.6
20260506220514 19 180 1.6 3.2 0.00 0.00 0.00 67 1021.6
20260506220010 18 185 0.0 3.2 0.00 0.00 0.00 68 1021.6
20260506215507 18 178 0.0 1.6 0.00 0.00 0.00 72 1021.6
20260506215003 18 191 0.0 3.2 0.00 0.00 0.00 73 1021.7
20260506214500 18 145 1.6 1.6 0.00 0.00 0.00 72 1021.6
20260506213957 18 140 3.2 3.2 0.00 0.00 0.00 71 1021.8
20260506213455 18 162 0.0 3.2 0.00 0.00 0.00 72 1021.8
20260506212952 18 112 4.8 4.8 0.00 0.00 0.00 70 1021.7
20260506212448 19 126 0.0 3.2 0.00 0.00 0.00 69 1021.7
20260506211943 18 182 0.0 3.2 0.00 0.00 0.00 69 1021.5
20260506211439 18 168 0.0 1.6 0.00 0.00 0.00 71 1021.7
20260506210937 18 179 3.2 3.2 0.00 0.00 0.00 71 1021.9
20260506210433 18 188 1.6 3.2 0.00 0.00 0.00 70 1022.0
20260506205930 18 172 1.6 3.2 0.00 0.00 0.00 71 1022.1
20260506205426 18 159 0.0 3.2 0.00 0.00 0.00 72 1022.0
20260506204923 17 180 0.0 1.6 0.00 0.00 0.00 73 1021.8
20260506204421 17 75 3.2 4.8 0.00 0.00 0.00 71 1022.2
20260506203918 18 163 1.6 1.6 0.00 0.00 0.00 72 1022.1
20260506203415 17 133 3.2 3.2 0.00 0.00 0.00 72 1022.1
20260506202912 17 161 1.6 1.6 0.00 0.00 0.00 72 1022.0
20260506202409 18 200 0.0 1.6 0.00 0.00 0.00 71 1021.8
20260506201905 18 191 1.6 3.2 0.00 0.00 0.00 71 1021.8
20260506201403 18 227 1.6 4.8 0.00 0.00 0.00 71 1021.8
20260506200859 18 120 0.0 1.6 0.00 0.00 0.00 72 1021.8
20260506200355 17 176 0.0 1.6 0.00 0.00 0.00 74 1021.9
20260506195852 17 172 0.0 4.8 0.00 0.00 0.00 75 1022.0
20260506195349 17 171 0.0 3.2 0.00 0.00 0.00 76 1022.1
20260506194846 17 170 0.0 1.6 0.00 0.00 0.00 75 1022.2
20260506194343 16 178 0.0 1.6 0.00 0.00 0.00 77 1022.3
20260506193840 16 174 0.0 4.8 0.00 0.00 0.00 78 1022.3
20260506193336 16 179 0.0 1.6 0.00 0.00 0.00 77 1022.4
20260506192833 16 204 1.6 3.2 0.00 0.00 0.00 77 1022.3
20260506192330 16 195 1.6 4.8 0.00 0.00 0.00 78 1022.3
20260506191827 16 180 0.0 0.0 0.00 0.00 0.00 78 1022.4
20260506191323 16 166 0.0 3.2 0.00 0.00 0.00 77 1022.3
20260506190820 16 150 1.6 3.2 0.00 0.00 0.00 77 1022.3
20260506190317 16 219 1.6 3.2 0.00 0.00 0.00 78 1022.3
20260506185814 16 209 0.0 1.6 0.00 0.00 0.00 77 1022.2
20260506185311 16 171 0.0 1.6 0.00 0.00 0.00 77 1022.2
20260506184808 16 157 0.0 1.6 0.00 0.00 0.00 77 1022.0
20260506184305 15 172 0.0 0.0 0.00 0.00 0.00 78 1022.3
20260506183802 15 159 1.6 3.2 0.00 0.00 0.00 79 1022.2
20260506183257 15 160 1.6 3.2 0.00 0.00 0.00 78 1022.3
20260506182754 15 152 1.6 1.6 0.00 0.00 0.00 78 1022.2
20260506182252 15 159 0.0 1.6 0.00 0.00 0.00 77 1022.2
20260506181749 15 172 0.0 1.6 0.00 0.00 0.00 78 1022.1
20260506181247 15 168 1.6 4.8 0.00 0.00 0.00 79 1022.1
20260506180744 15 184 0.0 1.6 0.00 0.00 0.00 79 1022.1
20260506180239 15 177 0.0 1.6 0.00 0.00 0.00 78 1022.0
20260506175736 15 177 0.0 0.0 0.00 0.00 0.00 78 1022.2
20260506175233 15 192 0.0 1.6 0.00 0.00 0.00 78 1022.1
20260506174731 15 174 0.0 1.6 0.00 0.00 0.00 79 1022.1
20260506174227 15 148 0.0 0.0 0.00 0.00 0.00 79 1021.8
20260506173725 15 169 0.0 1.6 0.00 0.00 0.00 79 1022.0
20260506173222 15 182 0.0 1.6 0.00 0.00 0.00 79 1021.7
20260506172719 15 174 0.0 1.6 0.00 0.00 0.00 78 1021.8
20260506172215 15 236 1.6 3.2 0.00 0.00 0.00 78 1021.8
20260506171712 15 174 0.0 1.6 0.00 0.00 0.00 78 1021.7
20260506171210 15 179 0.0 0.0 0.00 0.00 0.00 79 1021.9
20260506170707 14 175 1.6 1.6 0.00 0.00 0.00 79 1021.9
20260506170204 14 215 1.6 1.6 0.00 0.00 0.00 79 1021.8
20260506165702 14 182 0.0 4.8 0.00 0.00 0.00 80 1021.9
20260506165159 14 176 0.0 3.2 0.00 0.00 0.00 80 1021.9
20260506164656 14 178 1.6 1.6 0.00 0.00 0.00 80 1021.7
20260506164153 14 191 1.6 1.6 0.00 0.00 0.00 81 1021.8
20260506163649 13 183 0.0 1.6 0.00 0.00 0.00 82 1021.8
20260506163145 13 175 0.0 1.6 0.00 0.00 0.00 81 1021.9
20260506162641 13 210 1.6 1.6 0.00 0.00 0.00 82 1021.8
20260506162139 13 225 1.6 3.2 0.00 0.00 0.00 82 1021.7
20260506161636 13 189 0.0 3.2 0.00 0.00 0.00 81 1021.8
20260506161132 13 193 1.6 1.6 0.00 0.00 0.00 81 1021.8
20260506160630 13 187 1.6 1.6 0.00 0.00 0.00 81 1021.7
20260506160127 13 182 0.0 1.6 0.00 0.00 0.00 81 1021.5
20260506155626 13 183 0.0 1.6 0.00 0.00 0.00 81 1021.6
20260506155123 13 172 0.0 1.6 0.00 0.00 0.00 81 1021.1
20260506153224 13 172 0.0 1.6 0.00 0.00 0.00 82 1021.1
20260506152721 13 167 0.0 1.6 0.00 0.00 0.00 82 1021.3
20260506152219 13 177 0.0 1.6 0.00 0.00 0.00 84 1021.2
20260506151718 12 176 0.0 0.0 0.00 0.00 0.00 86 1021.8
20260506151214 12 174 1.6 3.2 0.00 0.00 0.00 85 1021.7
20260506150710 12 186 0.0 1.6 0.00 0.00 0.00 86 1021.8
20260506150207 12 178 0.0 4.8 0.00 0.00 0.00 86 1021.8
20260506145704 12 175 0.0 1.6 0.00 0.00 0.00 86 1021.6
20260506145201 12 167 1.6 4.8 0.00 0.00 0.00 86 1021.6
20260506144659 12 12 3.2 3.2 0.00 0.00 0.00 86 1021.7
20260506144155 12 211 0.0 3.2 0.00 0.00 0.00 86 1021.7
20260506143653 12 177 0.0 1.6 0.00 0.00 0.00 87 1021.5
20260506143150 12 176 1.6 3.2 0.00 0.00 0.00 87 1021.5
20260506142649 12 177 0.0 3.2 0.00 0.00 0.00 87 1021.6
20260506142146 12 8 3.2 4.8 0.00 0.00 0.00 87 1021.2
20260506141644 12 244 1.6 3.2 0.00 0.00 0.00 87 1021.2
20260506141142 12 180 0.0 1.6 0.00 0.00 0.00 87 1021.1
20260506140639 12 167 0.0 1.6 0.00 0.00 0.00 87 1021.0
20260506140136 12 171 0.0 1.6 0.00 0.00 0.00 88 1021.0
20260506135633 12 175 1.6 3.2 0.00 0.00 0.00 88 1021.0
20260506135129 12 243 3.2 4.8 0.00 0.00 0.00 88 1020.9
20260506134626 12 263 1.6 3.2 0.00 0.00 0.00 89 1021.1
20260506134121 12 176 0.0 3.2 0.00 0.00 0.00 89 1021.0
20260506133619 12 176 0.0 3.2 0.00 0.00 0.00 89 1020.7
20260506133116 12 178 0.0 3.2 0.00 0.00 0.00 89 1021.0
20260506132614 12 181 1.6 4.8 0.00 0.00 0.00 89 1020.7
20260506132110 12 174 0.0 1.6 0.00 0.00 0.00 89 1020.9
20260506131608 12 174 0.0 1.6 0.00 0.00 0.00 89 1020.7
20260506131104 12 185 0.0 3.2 0.00 0.00 0.00 89 1020.5
20260506130601 12 188 1.6 4.8 0.00 0.00 0.00 89 1020.5
20260506130058 12 177 0.0 1.6 0.00 0.00 0.00 89 1020.4
20260506125557 12 172 0.0 1.6 0.00 0.00 0.00 89 1020.5
20260506125054 12 181 1.6 1.6 0.00 0.00 0.00 89 1020.5
20260506124552 12 183 0.0 0.0 0.00 0.00 0.00 89 1020.3
20260506124049 12 175 1.6 1.6 0.00 0.00 0.00 89 1020.3
20260506123547 12 170 0.0 1.6 0.00 0.00 0.00 89 1020.2
20260506123045 12 181 0.0 0.0 0.00 0.00 0.00 89 1020.1
20260506122541 12 188 0.0 1.6 0.00 0.00 0.00 88 1020.3
20260506122040 12 184 1.6 4.8 0.00 0.00 0.00 88 1020.2
20260506121537 12 181 0.0 1.6 0.00 0.00 0.00 88 1020.4
20260506121033 12 181 1.6 3.2 0.00 0.00 0.00 88 1020.4
20260506120531 12 214 1.6 3.2 0.00 0.00 0.00 88 1020.3
20260506120028 12 182 0.0 1.6 0.00 0.00 0.00 88 1020.2
20260506115526 12 172 0.0 1.6 0.00 0.00 0.00 88 1020.1
20260506115024 12 176 1.6 1.6 0.00 0.00 0.00 88 1020.2
20260506114521 12 173 0.0 1.6 0.00 0.00 0.00 88 1020.1
20260506114020 12 176 1.6 4.8 0.00 0.00 0.00 88 1020.0
20260506113517 12 172 0.0 1.6 0.00 0.00 0.00 88 1019.9
20260506113014 12 171 1.6 1.6 0.00 0.00 0.00 88 1019.8
20260506112511 12 175 1.6 3.2 0.00 0.00 0.00 87 1019.7
20260506112008 12 216 3.2 3.2 0.00 0.00 0.00 87 1019.9
20260506111506 12 176 0.0 4.8 0.00 0.00 0.00 87 1019.8
20260506111003 12 182 1.6 6.4 0.00 0.00 0.00 87 1019.9
20260506110501 12 177 1.6 1.6 0.00 0.00 0.00 87 1019.7
20260506105957 12 176 0.0 4.8 0.00 0.00 0.00 87 1019.6
20260506105453 12 164 0.0 4.8 0.00 0.00 0.00 87 1019.6
20260506104951 12 179 0.0 1.6 0.00 0.00 0.00 87 1019.6
20260506104449 12 291 1.6 1.6 0.00 0.00 0.00 87 1019.3
20260506103947 12 176 0.0 1.6 0.00 0.00 0.00 87 1019.4
20260506103444 13 178 1.6 3.2 0.00 0.00 0.00 87 1019.4
20260506102940 13 195 0.0 1.6 0.00 0.00 0.00 86 1019.2
20260506102439 13 180 0.0 1.6 0.00 0.00 0.00 87 1019.3
20260506101936 13 274 1.6 1.6 0.00 0.00 0.00 87 1019.2
20260506101432 13 177 0.0 1.6 0.00 0.00 0.00 87 1019.1
20260506100929 13 175 0.0 0.0 0.00 0.00 0.00 87 1019.2
20260506100427 13 160 0.0 0.0 0.00 0.00 0.00 87 1019.0
20260506095925 13 176 1.6 3.2 0.00 0.00 0.00 86 1019.1
20260506095424 13 172 0.0 1.6 0.00 0.00 0.00 86 1019.2
20260506094919 13 175 0.0 1.6 0.00 0.00 0.00 86 1019.0
20260506094418 13 175 0.0 0.0 0.00 0.00 0.00 87 1018.9
20260506093915 13 175 0.0 1.6 0.00 0.00 0.00 86 1018.9
20260506093413 13 177 0.0 3.2 0.00 0.00 0.00 86 1018.9
20260506092911 13 177 0.0 3.2 0.00 0.00 0.00 86 1018.9
20260506092409 13 294 1.6 1.6 0.00 0.00 0.00 86 1018.9
20260506091905 13 187 0.0 1.6 0.00 0.00 0.00 86 1018.8
20260506091403 13 182 0.0 1.6 0.00 0.00 0.00 86 1018.8
20260506090900 13 174 0.0 1.6 0.00 0.00 0.00 86 1018.7
20260506090357 13 170 1.6 3.2 0.00 0.00 0.00 86 1018.8
20260506085854 13 167 0.0 3.2 0.00 0.00 0.00 86 1018.9
20260506085350 13 192 0.0 1.6 0.00 0.00 0.00 86 1018.9
20260506084847 13 182 0.0 3.2 0.00 0.00 0.00 85 1018.9
20260506084344 13 176 1.6 1.6 0.00 0.00 0.00 85 1019.1
20260506083840 13 180 0.0 0.0 0.00 0.00 0.00 85 1018.9
20260506083338 13 176 0.0 1.6 0.00 0.00 0.00 85 1018.8
20260506082835 13 182 0.0 1.6 0.00 0.00 0.00 85 1018.8
20260506082331 13 190 0.0 0.0 0.00 0.00 0.00 85 1018.9
20260506081828 13 185 0.0 1.6 0.00 0.00 0.00 85 1018.7
20260506081326 13 169 0.0 0.0 0.00 0.00 0.00 85 1018.8
20260506080823 13 179 0.0 3.2 0.00 0.00 0.00 84 1018.8
20260506080319 13 175 0.0 1.6 0.00 0.00 0.00 84 1018.9
20260506073304 13 170 0.0 3.2 0.00 0.00 0.00 84 1018.6
20260506072800 13 174 0.0 0.0 0.00 0.00 0.00 84 1018.4
20260506072258 13 176 0.0 0.0 0.00 0.00 0.00 84 1018.4
20260506071755 13 184 0.0 1.6 0.00 0.00 0.00 84 1018.3
20260506071254 13 180 0.0 1.6 0.00 0.00 0.00 84 1018.3
20260506070750 13 188 0.0 3.2 0.00 0.00 0.00 83 1018.4
20260506070247 13 180 0.0 3.2 0.00 0.00 0.00 83 1018.3